Flag for U.S.A. Weather past 2 weeks in Vista, California, U.S.A.

Now
71 °F

Partly sunny.


Feels Like: 72 °F
Forecast: 66 / 83 °F
Wind: No wind

Location: McClellan-Palomar Airport

Current Time: Jul 31, 2014 at 8:54:54 AM

Latest Report: Jul 31, 2014 at 7:53 AM


Visibility: 10 mi

Pressure: 29.92 "Hg

Humidity: 78%

Dew point: 64 °F

Location of VistaLocation

Historic Weather in Vista — Graph

°F

Vista temperature yesterday

Maximum temperature yesterday: 78 °F (at 10:53 AM)
Minimum temperature yesterday: 68 °F (at 5:53 AM)
Average temperature yesterday: 73 °F

Past Weeks' High & Low Weather Summary

 TemperatureHumidityPressure
High83 °F (Jul 28, 12:53 PM)97% (Jul 24, 6:53 AM)30.06 "Hg (Jul 24, 6:53 AM)
Low64 °F (Jul 23, 5:53 AM)37% (Jul 28, 12:53 PM)29.74 "Hg (Jul 24, 5:53 PM)
Average71 °F74%29.95 "Hg
* Reported Jul 16 6:53 AM — Jul 31 6:53 AM, Vista, Weather by CustomWeather, © 2014

Note: Actual official high and low records may vary slightly from our data, if they occured in-between our weather recording intervals... More about our weather records

Advertising

Vista weather history for previous 24 hours

 ConditionsComfort  
Time TempWeatherWind HumidityBarometerVisibility
6:53 AM
Jul 31
70 °FOvercast.3 mph84%29.92 "Hg5 mi
5:53 AM70 °FOvercast.No wind84%29.90 "Hg10 mi
4:53 AM70 °FOvercast.No wind84%29.90 "Hg10 mi
3:53 AM70 °FLow clouds.No wind84%29.90 "Hg10 mi
2:53 AM70 °FLow clouds.No wind87%29.90 "Hg9 mi
2:03 AM70 °FPassing clouds.No wind88%29.93 "Hg8 mi
1:53 AM70 °FPassing clouds.No wind87%29.92 "Hg9 mi
12:53 AM71 °FPassing clouds.No wind84%29.92 "Hg8 mi
11:53 PM
Jul 30
71 °FClear.No wind84%29.92 "Hg10 mi
11:02 PM72 °FPassing clouds.No wind83%29.94 "Hg10 mi
10:53 PM72 °FPassing clouds.No wind84%29.92 "Hg10 mi
9:53 PM72 °FPassing clouds.No wind84%29.92 "Hg10 mi
8:53 PM72 °FClear.3 mph84%29.92 "Hg10 mi
7:53 PM73 °FSunny.7 mph79%29.90 "Hg10 mi
6:53 PM75 °FSunny.3 mph66%29.89 "Hg10 mi
5:53 PM76 °FSunny.7 mph69%29.88 "Hg10 mi
4:53 PM77 °FSunny.7 mph58%29.89 "Hg10 mi
3:53 PM77 °FSunny.8 mph62%29.90 "Hg10 mi
2:53 PM77 °FSunny.8 mph64%29.92 "Hg10 mi
1:53 PM77 °FSunny.10 mph62%29.93 "Hg10 mi
12:53 PM78 °FSunny.9 mph58%29.93 "Hg10 mi
11:53 AM78 °FSunny.8 mph60%29.94 "Hg10 mi
10:53 AM78 °FSunny.5 mph56%29.95 "Hg10 mi
9:53 AM75 °FSunny.3 mph69%29.96 "Hg10 mi
8:53 AM74 °FSunny.3 mph71%29.95 "Hg10 mi
Weather by CustomWeather, © 2014

See weather overviewHow to use our weather pages